Parsons, KS

8:24 PM CDT on June 26, 2017 (GMT -0500)
Tri-City

Weather History for KPPF - October, 2012

Change the Weather History Date:

Wednesday, October 31, 2012

  Actual Average Record
Temperature  
Mean Temperature 50 °F -  
Max Temperature 66 °F 63 °F 87 °F (1950)
Min Temperature 35 °F 45 °F 17 °F (1993)
Degree Days  
Heating Degree Days 14    
Moisture  
Dew Point 31 °F    
Average Humidity 55    
Maximum Humidity 82    
Minimum Humidity 28    
Precipitation  
Precipitation 0.00 in - - ()
Sea Level Pressure  
Sea Level Pressure 30.04 in    
Wind  
Wind Speed 1 mph (NNE)    
Max Wind Speed 5 mph    
Max Gust Speed -    
Visibility 10 miles    
Events      
Averages and records for this station are not official NWS values.
T = Trace of Precipitation, MM = Missing Value Source: NWS Daily Summary

Daily Weather History Graph

Daily Weather History Graph

Search for Another Location

Airport or City:

Trip Planner

Search our weather history database for the weather conditions in past years. The results will help you decide how hot, cold, wet, or windy it might be!

Date:

Astronomy

Oct. 31, 2012 Rise Set
Actual Time 7:46 AM CDT 6:24 PM CDT
Civil Twilight 7:19 AM CDT 6:51 PM CDT
Nautical Twilight 6:48 AM CDT 7:22 PM CDT
Astronomical Twilight 6:17 AM CDT 7:52 PM CDT
Moon 7:39 PM CDT (10/31) 9:25 AM CDT (10/31)
Length of Visible Light 11h 32m
Length of Day
10h 38m
Full, 97% of the Moon is Illuminated
Oct 31
Full
Nov 6
Last Quarter
Nov 13
New
Nov 20
First Quarter
Nov 28
Full

Hourly Weather History & Observations

Time (CDT) Temp. Windchill Dew Point Humidity Pressure Visibility Wind Dir Wind Speed Gust Speed Precip Events Conditions
12:52 AM 45.0 °F - 33.1 °F 63% 29.99 in 10.0 mi Calm Calm - N/A   Clear
1:52 AM 44.1 °F - 32.0 °F 63% 30.01 in 10.0 mi Calm Calm - N/A   Clear
2:52 AM 41.0 °F - 30.9 °F 67% 30.01 in 10.0 mi Calm Calm - N/A   Clear
3:52 AM 42.1 °F 39.2 °F 30.0 °F 62% 30.02 in 10.0 mi NE 4.6 mph - N/A   Clear
4:52 AM 42.1 °F 40.2 °F 28.0 °F 58% 30.01 in 10.0 mi NE 3.5 mph - N/A   Clear
5:52 AM 39.0 °F - 28.0 °F 65% 30.01 in 10.0 mi Calm Calm - N/A   Clear
6:52 AM 37.0 °F - 28.0 °F 70% 30.04 in 10.0 mi Calm Calm - N/A   Clear
7:52 AM 35.1 °F - 28.0 °F 76% 30.06 in 10.0 mi Calm Calm - N/A   Partly Cloudy
8:52 AM 44.1 °F - 30.0 °F 58% 30.09 in 10.0 mi Calm Calm - N/A   Clear
9:52 AM 48.9 °F - 30.0 °F 48% 30.10 in 10.0 mi Variable 4.6 mph - N/A   Clear
10:52 AM 55.0 °F - 28.9 °F 37% 30.09 in 10.0 mi Calm Calm - N/A   Clear
12:52 PM 60.1 °F - 30.0 °F 32% 30.08 in 10.0 mi Calm Calm - N/A   Clear
1:52 PM 64.0 °F - 30.9 °F 29% 30.06 in 9.0 mi Variable 4.6 mph - N/A   Clear
2:52 PM 66.0 °F - 32.0 °F 28% 30.03 in 10.0 mi Variable 3.5 mph - N/A   Clear
3:52 PM 64.9 °F - 32.0 °F 29% 30.02 in 10.0 mi Calm Calm - N/A   Clear
4:52 PM 66.0 °F - 33.1 °F 29% 30.01 in 10.0 mi NW 3.5 mph - N/A   Clear
5:52 PM 64.0 °F - 32.0 °F 30% 30.01 in 10.0 mi Calm Calm - N/A   Clear
6:52 PM 51.1 °F - 35.1 °F 54% 30.03 in 5.0 mi Calm Calm - N/A   Haze
7:52 PM 48.9 °F - 35.1 °F 59% 30.04 in 10.0 mi Calm Calm - N/A   Clear
8:52 PM 44.1 °F - 35.1 °F 71% 30.04 in 10.0 mi Calm Calm - N/A   Clear
9:52 PM 43.0 °F - 34.0 °F 71% 30.05 in 10.0 mi Calm Calm - N/A   Clear
10:52 PM 39.0 °F - 34.0 °F 82% 30.05 in 10.0 mi Calm Calm - N/A   Clear
11:52 PM 39.9 °F - 34.0 °F 79% 30.05 in 10.0 mi Calm Calm - N/A   Clear